Hourly Data Report for July 28, 2021

OTTAWA INTL A
ONTARIO
Current Station Operator: NAVCAN

45°19'00.000" N
75°40'00.000" W
114.90 m
6106001
71628
YOW

Download Data

Hourly Data (July 2021)
Hourly Data Report for July 28, 2021
TIME
LST
Temp Definition
°C
Dew Point Definition
°C
Rel Hum Definition
%
Precip. Amount Definition
mm

Wind Dir Definition
10's deg

Wind Spd Definition
km/h
Visibility Definition
km
Stn Press Definition
kPa
Hmdx Definition


Wind Chill Definition


Weather Definition


00:00 13.9 13.2 95   30 7 24.1 100.30     LegendNANA
01:00 13.5 12.7 95   30 9 24.1 100.31     Clear
02:00 13.0 12.7 98   26 5 24.1 100.33     LegendNANA
03:00 13.3 13.2 99   30 5 0.4 100.35     Fog
04:00 12.8 12.7 99   34 8 16.1 100.36     Mainly Clear
05:00 13.6 13.4 99   35 9 24.1 100.41     LegendNANA
06:00 14.4 14.1 97   32 8 24.1 100.46     LegendNANA
07:00 16.3 14.0 86   36 13 24.1 100.53     Clear
08:00 17.9 13.5 75   5 10 24.1 100.55     LegendNANA
09:00 19.2 13.6 70   5 4 24.1 100.55     LegendNANA
10:00 20.8 13.8 64   7 7 24.1 100.53     Mainly Clear
11:00 22.0 13.7 59   1 8 24.1 100.50 25   LegendNANA
12:00 21.5 11.2 51   35 6 24.1 100.47     LegendNANA
13:00 22.1 11.1 49   2 7 24.1 100.41     Mostly Cloudy
14:00 23.1 10.0 43   36 2 24.1 100.38     LegendNANA
15:00 22.9 10.4 45   28 11 24.1 100.40     LegendNANA
16:00 23.8 8.8 38   29 8 24.1 100.36 25   Mostly Cloudy
17:00 23.4 10.0 42   29 12 24.1 100.32 25   LegendNANA
18:00 21.2 11.3 53   27 9 24.1 100.27     LegendNANA
19:00 20.8 12.6 59   26 4 24.1 100.25     Mostly Cloudy
20:00 17.7 10.5 62   25 3 24.1 100.24     LegendNANA
21:00 15.5 11.1 75   18 9 24.1 100.27     LegendNANA
22:00 15.8 11.7 77   18 10 24.1 100.25     Mainly Clear
23:00 15.7 12.5 81   18 8 24.1 100.21     LegendNANA

Notes on Data Quality.

Legend

  • E = Estimated
  • M = Missing
  • NA = Not Available*
  • [empty] = Indicates an unobserved value
Date modified: